Weather History for Lone Rock, WI

Change the Weather History Date:

Wednesday, March 26, 2014

  Actual Average Record
Temperature  
Mean Temperature 26 °F -  
Max Temperature 41 °F 48 °F 81 °F (2007)
Min Temperature 12 °F 30 °F 12 °F (2001)
Degree Days  
Heating Degree Days 40    
Moisture  
Dew Point 14 °F    
Average Humidity 60    
Maximum Humidity 84    
Minimum Humidity 41    
Precipitation  
Precipitation 0.00 in - - ()
Sea Level Pressure  
Sea Level Pressure 30.12 in    
Wind  
Wind Speed 6 mph (SSE)    
Max Wind Speed 20 mph    
Max Gust Speed 25 mph    
Visibility 10 miles    
Events      
Averages and records for this station are not official NWS values.
T = Trace of Precipitation, MM = Missing Value Source: NWS Daily Summary

Daily Weather History Graph

Daily Weather History Graph

Search for Another Location

Airport:

Trip Planner

Search our weather history database for the weather conditions in past years. The results will help you decide how hot, cold, wet, or windy it might be!

Date:

Astronomy

Mar. 26, 2014 Rise Set
Actual Time 6:53 AM CDT 7:20 PM CDT
Civil Twilight 6:24 AM CDT 7:48 PM CDT
Nautical Twilight 5:51 AM CDT 8:22 PM CDT
Astronomical Twilight 5:16 AM CDT 8:57 PM CDT
Moon 4:08 AM CDT (3/26) 2:52 PM CDT (3/26)
Length of Visible Light 13h 24m
Length of Day
12h 26m
Waning Crescent, 21% of the Moon is Illuminated
Mar 26
Waning Crescent
Mar 30
New
Apr 7
First Quarter
Apr 15
Full
Apr 22
Last Quarter

Hourly Weather History & Observations

Time (CDT) Temp. Windchill Dew Point Humidity Pressure Visibility Wind Dir Wind Speed Gust Speed Precip Events Conditions
12:56 AM 14.0 °F - 8.1 °F 77% 30.26 in 5.0 mi Calm Calm - N/A   Haze
1:56 AM 12.9 °F - 8.1 °F 81% 30.26 in 10.0 mi Calm Calm - N/A   Clear
2:56 AM 14.0 °F - 8.1 °F 77% 30.26 in 10.0 mi Calm Calm - N/A   Clear
3:56 AM 12.9 °F - 8.1 °F 81% 30.26 in 10.0 mi Calm Calm - N/A   Clear
4:56 AM 12.9 °F - 8.1 °F 81% 30.26 in 10.0 mi Calm Calm - N/A   Clear
5:56 AM 12.0 °F 5.9 °F 7.0 °F 80% 30.27 in 10.0 mi East 3.5 mph - N/A   Clear
6:56 AM 12.9 °F 5.2 °F 8.1 °F 81% 30.27 in 10.0 mi East 4.6 mph - N/A   Clear
7:56 AM 15.1 °F - 10.9 °F 84% 30.29 in 10.0 mi Calm Calm - N/A   Clear
8:56 AM 19.9 °F 11.1 °F 10.9 °F 68% 30.27 in 10.0 mi South 6.9 mph - N/A   Clear
9:56 AM 25.0 °F 13.6 °F 10.9 °F 55% 30.25 in 10.0 mi South 12.7 mph - N/A   Clear
10:56 AM 28.0 °F 18.6 °F 12.9 °F 53% 30.23 in 10.0 mi South 10.4 mph - N/A   Overcast
11:56 AM 30.0 °F 21.7 °F 12.9 °F 49% 30.20 in 10.0 mi South 9.2 mph - N/A   Overcast
12:56 PM 32.0 °F 21.6 °F 14.0 °F 48% 30.17 in 10.0 mi South 15.0 mph - N/A   Mostly Cloudy
1:56 PM 35.1 °F 25.2 °F 15.1 °F 44% 30.13 in 10.0 mi SSE 16.1 mph 23.0 mph N/A   Overcast
2:56 PM 37.0 °F 28.5 °F 15.1 °F 41% 30.08 in 10.0 mi SSE 13.8 mph 24.2 mph N/A   Overcast
3:56 PM 37.9 °F 29.2 °F 16.0 °F 41% 30.03 in 10.0 mi SSE 15.0 mph 21.9 mph N/A   Mostly Cloudy
4:56 PM 37.9 °F 28.9 °F 18.0 °F 45% 29.98 in 10.0 mi SSE 16.1 mph 23.0 mph N/A   Overcast
5:56 PM 37.0 °F 26.7 °F 18.0 °F 46% 29.97 in 10.0 mi SSE 19.6 mph 25.3 mph N/A   Mostly Cloudy
6:56 PM 37.0 °F 28.9 °F 19.0 °F 48% 29.96 in 10.0 mi SSE 12.7 mph 20.7 mph N/A   Overcast
7:56 PM 37.0 °F 28.9 °F 19.9 °F 50% 29.94 in 10.0 mi SSE 12.7 mph 24.2 mph N/A   Overcast
8:56 PM 37.0 °F 29.3 °F 21.0 °F 52% 29.90 in 10.0 mi SSE 11.5 mph - 0.00 in   Overcast
9:56 PM 37.0 °F 29.3 °F 21.0 °F 52% 29.88 in 10.0 mi SSE 11.5 mph 20.7 mph N/A   Mostly Cloudy
10:56 PM 39.0 °F 32.8 °F 21.0 °F 49% 29.86 in 10.0 mi South 9.2 mph 19.6 mph N/A   Overcast
11:56 PM 39.9 °F 31.8 °F 21.0 °F 47% 29.83 in 10.0 mi South 15.0 mph 19.6 mph N/A   Overcast